Regional Weather Roundup
Issued by NWS Midland/Odessa, TX

Skip options and go directly to product.
Home | Oldest Version | Next Version | Current Version | All | Text Only | Save Text | Print | Product List | Glossary On

Skip product version selection by date and time.   
046
ASUS44 KMAF 171202
RWRMAF
MIDLAND AREA WEATHER ROUNDUP
NATIONAL WEATHER SERVICE MIDLAND TX
700 AM CDT WED SEP 17 2014

...IN SOUTHWEST TEXAS AND SOUTHEAST NEW MEXICO...

CITY           SKY/WX    TMP DP  RH WIND       PRES   REMARKS
ALPINE         MOCLDY    65  61  87 S7        30.16S
ANDREWS        FAIR      67  66  98 CALM      30.07S
ARTESIA        NOT AVBL
BIG SPRING     CLOUDY    74  70  87 E3        30.05F
CARLSBAD       MOCLDY    67  50  55 N5        30.06S HAZE
DRYDEN           N/A     75  70  84 NE7       30.00R
FORT STOCKTON  MOCLDY    67  65  93 S7        30.04S
GUAD PASS      MOCLDY    63  59  87 E15       30.18R
HOBBS          CLEAR     64  64 100 NE3       30.10
MARFA          MOCLDY    61  57  88 E5        30.15S
MIDLAND AIRPK  NOT AVBL
MIDLAND INTL   MOCLDY    69  66  90 NE3       30.04S
ODESSA         MOCLDY    69  65  86 E5        30.05S
PECOS          PTCLDY    68  64  88 NE7       30.02S
PRESIDIO       FAIR      73  63  70 NE8       30.01R
SEMINOLE       CLOUDY    66  65  98 CALM      30.09S
SNYDER         CLOUDY    70  69  95 E5        30.04F
WINK           CLOUDY    71  66  84 NE3       30.03R
$$
...OTHER STATIONS IN TEXAS...

CITY           SKY/WX    TMP DP  RH WIND       PRES   REMARKS
ABILENE        CLOUDY    73  69  87 S3        30.01S
AMARILLO       MOCLDY    61  60  97 S8        30.07S
AUSTIN         CLOUDY    76  74  93 CALM      29.96R
BROWNSVILLE    CLEAR     76  75  97 S5        29.93R
CORPUS CHRISTI MOCLDY    77  75  93 S5        29.93R
DALLAS FTW     MOCLDY    75  70  84 SE5       29.96S
DEL RIO        CLOUDY    77  74  90 E7        29.94S
EL PASO        LGT RAIN  68  63  84 N9        30.05S
HOUSTON INT    MOCLDY    76  75  97 CALM      29.95S
LUBBOCK        LGT RAIN  67  65  93 N3        30.08R FOG
SAN ANGELO     MOCLDY    73  68  84 CALM      30.01R
SAN ANTONIO    LGT RAIN  77  75  93 E5        29.96S
WACO           CLOUDY    73  72  96 S7        29.97R
WICHITA FALLS  NOT AVBL
$$
...OTHER LOCATIONS IN NEW MEXICO...

CITY           SKY/WX    TMP DP  RH WIND       PRES   REMARKS
ALAMAGORDO     LGT RAIN  64  64 100 NW10      30.12R
ALBUQUERQUE    CLOUDY    62  55  77 CALM      30.17S
CANNON AFB     MOCLDY    63  59  88 W5        30.12F
CLOVIS           N/A     63  59  88 SW7       30.14S
HOLLOMAN AFB   RAIN      64  64 100 N6        30.10R
ROSWELL        CLOUDY    66  65  96 CALM      30.08S FOG
RUIDOSO        CLOUDY    57  57 100 CALM      30.25F FOG
SANTA FE       CLOUDY    56  50  80 CALM      30.21S
TRUTH OR CONSE RAIN      62  62 100 NE3       30.13R FOG
TUCUMCARI      CLOUDY    64  60  87 SW9       30.07F
$$

USA.gov is the U.S. government's official web portal to all federal, state and local government web resources and services.